Los Alamos, NM

9:27 AM MDT on June 23, 2017 (GMT -0600)
Los Alamos

Weather History for KLAM - August, 2014

Change the Weather History Date:

Monday, August 18, 2014

  Actual Average Record
Temperature  
Mean Temperature 69 °F -  
Max Temperature 77 °F 76 °F 89 °F (1986)
Min Temperature 61 °F 54 °F 46 °F (1979)
Cooling Degree Days 4    
Growing Degree Days 19 (Base 50)    
Moisture  
Dew Point 43 °F    
Average Humidity 40    
Maximum Humidity 58    
Minimum Humidity 24    
Precipitation  
Precipitation 0.00 in - - ()
Sea Level Pressure  
Sea Level Pressure 30.27 in    
Wind  
Wind Speed 5 mph (SW)    
Max Wind Speed 14 mph    
Max Gust Speed -    
Visibility 10 miles    
Events      
Averages and records for this station are not official NWS values.
T = Trace of Precipitation, MM = Missing Value Source: NWS Daily Summary

Daily Weather History Graph

Daily Weather History Graph

Search for Another Location

Airport or City:

Trip Planner

Search our weather history database for the weather conditions in past years. The results will help you decide how hot, cold, wet, or windy it might be!

Date:

Astronomy

Aug. 18, 2014 Rise Set
Actual Time 6:26 AM MDT 7:51 PM MDT
Civil Twilight 5:59 AM MDT 8:17 PM MDT
Nautical Twilight 5:26 AM MDT 8:50 PM MDT
Astronomical Twilight 4:52 AM MDT 9:23 PM MDT
Moon 12:37 AM MDT (8/18) 2:53 PM MDT (8/18)
Length of Visible Light 14h 18m
Length of Day
13h 24m
Last Quarter, 38% of the Moon is Illuminated
Aug 18
Last Quarter
Aug 25
New
Sep 2
First Quarter
Sep 8
Full
Sep 15
Last Quarter

Hourly Weather History & Observations

Time (MDT) Temp. Dew Point Humidity Pressure Visibility Wind Dir Wind Speed Gust Speed Precip Events Conditions
12:15 AM 66.6 °F 40.1 °F 38% 30.33 in 10.0 mi SW 5.8 mph - N/A   Clear
12:35 AM 66.2 °F 41.0 °F 40% 30.33 in 10.0 mi SW 5.8 mph - N/A   Clear
12:55 AM 66.2 °F 41.9 °F 41% 30.33 in 10.0 mi SSW 5.8 mph - N/A   Clear
1:15 AM 66.2 °F 41.9 °F 41% 30.33 in 10.0 mi SSW 5.8 mph - N/A   Clear
1:35 AM 66.2 °F 42.3 °F 42% 30.33 in 10.0 mi South 5.8 mph - N/A   Clear
1:55 AM 64.6 °F 42.6 °F 45% 30.32 in 10.0 mi SSW 6.9 mph - N/A   Clear
2:15 AM 63.9 °F 42.8 °F 46% 30.32 in 10.0 mi SW 5.8 mph - N/A   Clear
2:35 AM 65.1 °F 42.4 °F 44% 30.32 in 10.0 mi SW 4.6 mph - N/A   Clear
2:55 AM 65.7 °F 43.2 °F 44% 30.32 in 10.0 mi SSW 5.8 mph - N/A   Mostly Cloudy
3:15 AM 65.1 °F 44.1 °F 46% 30.31 in 10.0 mi SSW 4.6 mph - N/A   Mostly Cloudy
3:35 AM 64.8 °F 45.0 °F 49% 30.31 in 10.0 mi SSW 3.5 mph - N/A   Clear
3:55 AM 64.6 °F 45.1 °F 49% 30.31 in 10.0 mi Calm Calm - N/A   Clear
4:15 AM 64.0 °F 45.1 °F 50% 30.30 in 10.0 mi Calm Calm - N/A   Clear
4:35 AM 64.4 °F 45.5 °F 50% 30.31 in 10.0 mi Calm Calm - N/A   Clear
4:55 AM 63.3 °F 45.5 °F 52% 30.30 in 10.0 mi South 3.5 mph - N/A   Clear
5:15 AM 61.0 °F 45.9 °F 58% 30.30 in 10.0 mi SW 5.8 mph - N/A   Clear
5:35 AM 62.6 °F 45.7 °F 54% 30.31 in 10.0 mi Calm Calm - N/A   Clear
5:55 AM 62.8 °F 45.9 °F 54% 30.31 in 10.0 mi South 3.5 mph - N/A   Scattered Clouds
6:15 AM 61.3 °F 45.9 °F 57% 30.31 in 10.0 mi SSW 5.8 mph - N/A   Scattered Clouds
6:35 AM 62.8 °F 45.9 °F 54% 30.32 in 10.0 mi Calm Calm - N/A   Clear
6:55 AM 63.1 °F 45.9 °F 53% 30.32 in 10.0 mi Calm Calm - N/A   Clear
7:15 AM 62.1 °F 45.1 °F 54% 30.32 in 10.0 mi Calm Calm - N/A   Clear
7:35 AM 62.6 °F 47.1 °F 57% 30.33 in 10.0 mi Calm Calm - N/A   Clear
7:55 AM 62.6 °F 47.7 °F 58% 30.33 in 10.0 mi NE 3.5 mph - N/A   Clear
8:15 AM 63.5 °F 46.8 °F 54% 30.33 in 10.0 mi Calm Calm - N/A   Clear
8:35 AM 64.4 °F 46.8 °F 53% 30.33 in 10.0 mi NE 3.5 mph - N/A   Clear
8:55 AM 65.3 °F 46.6 °F 51% 30.33 in 10.0 mi Calm Calm - N/A   Clear
9:15 AM 66.2 °F 46.6 °F 49% 30.33 in 10.0 mi Calm Calm - N/A   Clear
9:35 AM 67.1 °F 46.8 °F 48% 30.32 in 10.0 mi Calm Calm - N/A   Clear
9:55 AM 68.7 °F 47.5 °F 47% 30.32 in 10.0 mi ENE 3.5 mph - N/A   Clear
10:15 AM 70.3 °F 47.5 °F 44% 30.32 in 10.0 mi ENE 3.5 mph - N/A   Clear
10:35 AM 70.7 °F 47.1 °F 43% 30.32 in 10.0 mi ENE 5.8 mph - N/A   Clear
10:55 AM 72.1 °F 46.8 °F 40% 30.32 in 10.0 mi ENE 3.5 mph - N/A   Clear
11:15 AM 73.0 °F 47.5 °F 40% 30.31 in 10.0 mi ENE 4.6 mph - N/A   Clear
11:35 AM 74.3 °F 46.8 °F 37% 30.31 in 10.0 mi Calm Calm - N/A   Clear
11:55 AM 76.5 °F 47.5 °F 36% 30.30 in 10.0 mi NE 3.5 mph - N/A   Clear
12:15 PM 74.3 °F 46.4 °F 37% 30.29 in 10.0 mi NW 3.5 mph - N/A   Clear
12:35 PM 74.5 °F 46.6 °F 37% 30.29 in 10.0 mi Calm Calm - N/A   Clear
12:55 PM 73.8 °F 47.7 °F 40% 30.28 in 10.0 mi Calm Calm - N/A   Clear
1:15 PM 73.8 °F 47.5 °F 39% 30.28 in 10.0 mi West 6.9 mph - N/A   Clear
1:35 PM 73.9 °F 48.2 °F 40% 30.28 in 10.0 mi WSW 9.2 mph - N/A   Clear
1:55 PM 71.8 °F 47.7 °F 42% 30.27 in 10.0 mi WSW 10.4 mph - N/A   Clear
2:15 PM 71.8 °F 47.3 °F 42% 30.27 in 10.0 mi WSW 8.1 mph - N/A   Scattered Clouds
2:35 PM 72.3 °F 46.6 °F 40% 30.26 in 10.0 mi WSW 6.9 mph - N/A   Scattered Clouds
2:55 PM 73.4 °F 46.2 °F 38% 30.26 in 10.0 mi WSW 10.4 mph - N/A   Clear
3:15 PM 73.9 °F 42.3 °F 32% 30.24 in 10.0 mi WSW 9.2 mph - N/A   Clear
3:35 PM 75.2 °F 41.0 °F 29% 30.23 in 10.0 mi SW 4.6 mph - N/A   Clear
3:55 PM 75.9 °F 39.6 °F 27% 30.22 in 10.0 mi SW 5.8 mph - N/A   Clear
4:15 PM 76.5 °F 39.0 °F 26% 30.21 in 10.0 mi South 6.9 mph - N/A   Clear
4:35 PM 77.0 °F 37.8 °F 24% 30.21 in 10.0 mi South 5.8 mph - N/A   Clear
4:55 PM 77.0 °F 37.8 °F 24% 30.21 in 10.0 mi SSW 6.9 mph - N/A   Clear
5:15 PM 77.2 °F 37.4 °F 24% 30.20 in 10.0 mi Calm Calm - N/A   Clear
5:35 PM 77.0 °F 37.2 °F 24% 30.20 in 10.0 mi WSW 5.8 mph - N/A   Clear
5:55 PM 75.4 °F 41.7 °F 30% 30.20 in 10.0 mi West 8.1 mph - N/A   Clear
6:15 PM 74.8 °F 43.0 °F 32% 30.19 in 10.0 mi West 9.2 mph - N/A   Clear
6:35 PM 74.8 °F 41.7 °F 30% 30.19 in 10.0 mi West 6.9 mph - N/A   Clear
6:55 PM 74.3 °F 39.9 °F 29% 30.18 in 10.0 mi WSW 5.8 mph - N/A   Clear
7:15 PM 73.4 °F 37.6 °F 27% 30.19 in 10.0 mi West 12.7 mph - N/A   Clear
7:35 PM 73.4 °F 34.9 °F 24% 30.19 in 10.0 mi West 13.8 mph - N/A   Clear
7:55 PM 73.0 °F 34.0 °F 24% 30.19 in 10.0 mi WSW 9.2 mph - N/A   Clear
8:15 PM 71.8 °F 36.0 °F 27% 30.19 in 10.0 mi WSW 9.2 mph - N/A   Clear
8:35 PM 71.8 °F 35.6 °F 27% 30.19 in 10.0 mi WSW 8.1 mph - N/A   Clear
8:55 PM 71.8 °F 37.6 °F 29% 30.20 in 10.0 mi SW 6.9 mph - N/A   Clear
9:15 PM 71.1 °F 38.5 °F 31% 30.21 in 10.0 mi SSW 4.6 mph - N/A   Clear
9:35 PM 70.0 °F 39.2 °F 33% 30.22 in 10.0 mi SSW 6.9 mph - N/A   Clear
10:15 PM 70.0 °F 39.4 °F 33% 30.23 in 10.0 mi SW 5.8 mph - N/A   Clear
10:55 PM 70.2 °F 38.8 °F 32% 30.23 in 10.0 mi SW 6.9 mph - N/A   Clear
11:15 PM 69.3 °F 38.7 °F 33% 30.23 in 10.0 mi SW 6.9 mph - N/A   Clear
11:35 PM 69.6 °F 37.4 °F 31% 30.23 in 10.0 mi SSW 9.2 mph - N/A   Clear
11:55 PM 68.9 °F 37.8 °F 32% 30.23 in 10.0 mi SSW 6.9 mph - N/A   Clear